Location: St. Louis
(38.6270°N, 90.1994°W)
Time: 00:22:49
(UTC-06:00)

BEESAT 2 - Visible Passes

Search period start: 28 January 2022 00:00
Search period end: 07 February 2022 00:00
Orbit: 498 x 513 km, 64.9° (Epoch: 27 January)

Date Brightness Start Highest point End Pass type
(mag) Time Alt. Az. Time Alt. Az. Time Alt. Az.
28 Jan ? 06:00:27 10° SSW 06:04:15 61° ESE 06:08:06 10° NE visible
29 Jan ? 05:41:26 10° SSW 05:45:14 57° ESE 05:49:03 10° NE visible
30 Jan ? 05:22:25 10° SSW 05:26:11 53° ESE 05:29:59 10° NE visible
31 Jan ? 05:06:01 37° SSE 05:07:08 50° ESE 05:10:55 10° NE visible
01 Feb ? 04:48:56 39° ENE 04:48:56 39° ENE 04:51:50 10° NE visible
01 Feb ? 06:23:47 12° W 06:25:45 16° NW 06:28:09 10° N visible
02 Feb ? 04:31:26 19° NE 04:31:26 19° NE 04:32:44 10° NE visible
02 Feb ? 06:06:14 16° NW 06:06:39 16° NW 06:09:10 10° N visible
03 Feb ? 05:48:26 16° NNW 05:48:26 16° NNW 05:50:10 10° N visible
04 Feb ? 05:30:25 13° NNW 05:30:25 13° NNW 05:31:10 10° N visible
